[[{"header":{"parameterUnit":"m.s-1","parameterCategory":1,"la1":30.2991,"la2":30.254,"lo1":-89.0895,"lo2":-89.0444,"dy":0.0017,"dx":0.0017,"nx":28,"ny":28,"refTime":"2025-03-19T21:00:00:Z","depth":0,"parameterNumber":2,"parameterNumberName":"U-component_of_WINDS"},"data":[0,0,0,0,0,0,0,0,0,0,0,0,0,0,0,0,0,0,0,0,0,0,0,0,0,0,0,0,0,0,0,0,0,0,0,0,0,0,0,0,0,0,0,0,0,0,0,0,0,0,0,0,0,0,0,0,0,0,-1.7165,-1.7165,0,-1.7118,-1.7118,-1.7117,-1.7063,-1.7063,-1.7062,-1.7061,-1.7012,-1.7011,-1.7011,0,0,0,0,0,0,0,0,0,0,0,0,0,-1.7208,-1.7208,-1.7165,-1.7165,-1.7164,-1.7119,-1.7118,-1.7117,-1.7064,-1.7063,-1.7062,-1.7061,-1.7012,-1.7012,-1.7011,0,0,0,0,0,0,0,0,0,0,0,0,0,-1.7178,-1.7207,-1.7166,-1.7132,-1.7129,-1.7119,-1.7118,-1.7117,-1.7064,-1.7063,-1.7061,-1.706,-1.7012,-1.7012,-1.7011,-1.703,0,0,-1.7008,-1.7008,0,0,0,0,0,0,0,0,-1.718,-1.7177,-1.7138,-1.7134,-1.713,-1.7096,-1.7115,-1.7088,-1.7064,-1.7088,-1.7061,-1.706,-1.7041,-1.7037,-1.7031,-1.7027,-1.7025,-1.7008,-1.7008,-1.7007,-1.7007,0,0,0,0,0,0,0,-1.7182,-1.7178,-1.7147,-1.7137,-1.7133,-1.7119,-1.7113,-1.7109,-1.7072,-1.7086,-1.7082,-1.7077,-1.7039,-1.7032,-1.703,-1.7025,-1.7008,-1.7007,-1.7007,-1.7007,-1.7033,-1.7034,0,0,0,0,0,0,-1.7189,-1.718,-1.7148,-1.7145,-1.7153,-1.7119,-1.7113,-1.7108,-1.7072,-1.7065,-1.7078,-1.7075,-1.7034,-1.7031,-1.7028,-1.7046,-1.7007,-1.7006,-1.7006,-1.7032,-1.7033,-1.7034,0,0,0,0,0,0,-1.719,-1.7187,-1.715,-1.7162,-1.7156,-1.712,-1.7115,-1.7108,-1.7101,-1.7066,-1.7059,-1.7079,-1.7033,-1.7029,-1.7029,-1.7044,-1.7006,-1.7005,-1.703,-1.7032,-1.7034,-1.7084,0,0,0,0,0,0,-1.7192,-1.7188,-1.7195,-1.7162,-1.7156,-1.7153,-1.7115,-1.7108,-1.71,-1.7095,-1.7064,-1.7058,-1.7032,-1.7031,-1.7029,-1.7042,-1.7005,-1.7029,-1.7031,-1.7033,-1.7081,-1.7087,-1.7093,0,0,0,0,0,-1.7194,-1.7211,-1.7195,-1.7192,-1.7164,-1.7154,-1.715,-1.7119,-1.7102,-1.7108,-1.7085,-1.7059,-1.7043,-1.7032,-1.7028,-1.7042,-1.7028,-1.703,-1.7033,-1.7078,-1.7086,-1.7093,0,0,0,0,0,0,-1.7245,-1.7206,-1.7188,-1.7195,-1.7179,-1.7145,-1.7152,-1.7129,-1.7116,-1.7112,-1.7075,-1.7069,-1.7073,-1.7058,-1.7045,-1.7058,-1.7032,-1.7034,-1.7067,-1.7074,-1.708,-1.7082,-1.7004,0,0,0,0,0,-1.7258,-1.7253,-1.7219,-1.7229,-1.7221,-1.7188,-1.7183,-1.7161,-1.7142,-1.7134,-1.7111,-1.7093,-1.7084,-1.7079,-1.7068,-1.7079,-1.7071,-1.7087,-1.7093,-1.7098,-1.7099,-1.7103,-1.7109,-1.7043,-1.7043,-1.7043,0,0,-1.7282,-1.7261,-1.726,-1.7238,-1.7223,-1.7218,-1.7182,-1.718,-1.7176,-1.7134,-1.7132,-1.7115,-1.7093,-1.7098,-1.7099,-1.7085,-1.7116,-1.7101,-1.7106,-1.7104,-1.7106,-1.7112,-1.7118,-1.7045,-1.7045,-1.7045,0,0,-1.7325,-1.7309,-1.7314,-1.73,-1.7276,-1.7255,-1.7256,-1.7226,-1.7213,-1.7211,-1.7179,-1.7175,-1.716,-1.7145,-1.7135,-1.7173,-1.7148,-1.7171,-1.7201,-1.7205,-1.721,-1.7214,-1.7226,-1.7231,-1.7173,-1.7174,-1.7174,0,-1.7359,-1.7351,-1.732,-1.7319,-1.731,-1.7273,-1.7277,-1.7265,-1.7239,-1.7234,-1.7219,-1.7199,-1.7181,-1.7182,-1.7191,-1.7186,-1.7185,-1.7173,-1.7212,-1.7216,-1.7219,-1.723,-1.7235,-1.7176,-1.7176,-1.7176,-1.7175,0,-1.7393,-1.7388,-1.7396,-1.7372,-1.7364,-1.7366,-1.7335,-1.7331,-1.731,-1.729,-1.7288,-1.7266,-1.725,-1.7249,-1.7229,-1.7247,-1.7239,-1.7219,-1.7191,-1.7229,-1.7238,-1.7242,-1.718,-1.7179,-1.7178,-1.7178,0,0,-1.7464,-1.7424,-1.7427,-1.7416,-1.7388,-1.7383,-1.7384,-1.7368,-1.7365,-1.7349,-1.7347,-1.7336,-1.7317,-1.7307,-1.7285,-1.7288,-1.7318,-1.7267,-1.7266,-1.7275,-1.7334,-1.7347,-1.7352,-1.7302,-1.7303,-1.7304,-1.7335,0,-1.75,-1.7498,-1.747,-1.7476,-1.747,-1.7436,-1.7436,-1.7419,-1.74,-1.7393,-1.7372,-1.7364,-1.7341,-1.7334,-1.7336,-1.7314,-1.7328,-1.7312,-1.7299,-1.7299,-1.7303,-1.7358,-1.7372,-1.7402,-1.7338,-1.7339,-1.734,0,-1.7541,-1.7528,-1.7533,-1.7504,-1.7501,-1.7501,-1.7485,-1.7479,-1.7458,-1.7445,-1.7433,-1.7409,-1.7406,-1.7383,-1.7379,-1.7368,-1.7361,-1.735,-1.735,-1.7346,-1.7319,-1.7352,-1.7411,-1.7415,-1.7345,-1.7345,-1.7344,0,-1.759,-1.7573,-1.7574,-1.7565,-1.7533,-1.7534,-1.752,-1.7499,-1.7491,-1.7477,-1.7472,-1.7458,-1.7449,-1.7439,-1.7411,-1.7397,-1.741,-1.7384,-1.7397,-1.7397,-1.7398,-1.7398,-1.7455,-1.7399,-1.7399,-1.7399,-1.7399,0,-1.7631,-1.7635,-1.7595,-1.7595,-1.7598,-1.7567,-1.7571,-1.7554,-1.7536,-1.7531,-1.7502,-1.7498,-1.7463,-1.7455,-1.7434,-1.7433,-1.743,-1.7418,-1.7411,-1.7419,-1.742,-1.7412,-1.7408,-1.74,-1.74,-1.74,-1.7399,0,-1.7685,-1.7659,-1.7656,-1.7626,-1.7619,-1.7622,-1.7596,-1.7594,-1.7575,-1.757,-1.7567,-1.7536,-1.7525,-1.7497,-1.748,-1.7466,-1.7469,-1.746,-1.7476,-1.7472,-1.7485,-1.7483,-1.7536,-1.7541,-1.7485,-1.7485,-1.7486,0,-1.7711,-1.7713,-1.7684,-1.7679,-1.7666,-1.7659,-1.7651,-1.7621,-1.7614,-1.7591,-1.7592,-1.758,-1.7568,-1.7553,-1.7528,-1.7515,-1.7503,-1.7522,-1.75,-1.7507,-1.75,-1.7499,-1.7498,-1.7526,-1.7527,-1.7528,-1.7528,0,-1.7761,-1.7748,-1.7738,-1.7723,-1.7715,-1.7702,-1.7687,-1.7685,-1.7651,-1.7645,-1.7634,-1.7625,-1.7607,-1.7594,-1.7577,-1.7562,-1.7539,-1.7536,-1.7538,-1.7544,-1.7552,-1.7545,-1.7486,-1.7534,-1.7534,-1.7533,-1.7533,-1.7533,-1.78,-1.78,-1.7778,-1.7768,-1.7754,-1.7741,-1.7738,-1.7718,-1.7709,-1.7692,-1.7675,-1.7666,-1.7645,-1.7619,-1.7607,-1.7599,-1.7587,-1.759,-1.759,-1.7591,-1.7593,-1.7556,-1.7596,-1.7596,-1.7595,-1.7595,-1.7595,0,-1.7846,-1.7831,-1.7822,-1.7802,-1.7794,-1.7774,-1.7757,-1.7751,-1.7743,-1.7727,-1.7715,-1.7703,-1.769,-1.7666,-1.7651,-1.7649,-1.7638,-1.7646,-1.7644,-1.7641,-1.7606,-1.7605,-1.7655,-1.7655,-1.7655,-1.7655,-1.7655,-1.7655,-1.7868,-1.7866,-1.7851,-1.7842,-1.7826,-1.7817,-1.7809,-1.7796,-1.7783,-1.777,-1.7759,-1.7744,-1.7723,-1.7707,-1.7695,-1.7688,-1.7683,-1.7694,-1.7683,-1.765,-1.7644,-1.7638,-1.7637,-1.7693,-1.7693,-1.7719,-1.7719,-1.7719]},{"header":{"parameterUnit":"m.s-1","parameterCategory":1,"la1":30.2991,"la2":30.254,"lo1":-89.0895,"lo2":-89.0444,"dy":0.0017,"dx":0.0017,"nx":28,"ny":28,"refTime":"2025-03-19T21:00:00:Z","depth":0,"parameterNumber":3,"parameterNumberName":"V-component_of_WINDS"},"data":[0,0,0,0,0,0,0,0,0,0,0,0,0,0,0,0,0,0,0,0,0,0,0,0,0,0,0,0,0,0,0,0,0,0,0,0,0,0,0,0,0,0,0,0,0,0,0,0,0,0,0,0,0,0,0,0,0,0,5.8202,5.8201,0,5.8104,5.8102,5.8101,5.8051,5.8051,5.8051,5.8051,5.7942,5.7939,5.7937,0,0,0,0,0,0,0,0,0,0,0,0,0,5.8338,5.8336,5.8202,5.8201,5.8199,5.8104,5.8102,5.8101,5.8051,5.8051,5.8051,5.8051,5.7943,5.794,5.7936,0,0,0,0,0,0,0,0,0,0,0,0,0,5.8263,5.8335,5.8202,5.8163,5.8159,5.8104,5.8102,5.8101,5.8051,5.8051,5.8051,5.8051,5.7944,5.794,5.7936,5.791,0,0,5.7923,5.7921,0,0,0,0,0,0,0,0,5.8268,5.8258,5.817,5.8166,5.816,5.809,5.8111,5.8037,5.8051,5.8091,5.8051,5.8051,5.7991,5.7983,5.7964,5.7905,5.7901,5.7922,5.792,5.7918,5.7917,0,0,0,0,0,0,0,5.8273,5.8262,5.8163,5.8169,5.8163,5.8148,5.8137,5.8096,5.8042,5.8088,5.8084,5.8074,5.7988,5.7968,5.7961,5.7899,5.7923,5.7919,5.7916,5.7914,5.7813,5.7813,0,0,0,0,0,0,5.8285,5.8267,5.8166,5.816,5.8215,5.8145,5.8133,5.8112,5.8043,5.8032,5.8074,5.8072,5.7976,5.7966,5.7957,5.7923,5.7918,5.7914,5.7912,5.7814,5.7813,5.7813,0,0,0,0,0,0,5.8288,5.8277,5.817,5.8212,5.8197,5.8143,5.812,5.811,5.8091,5.8032,5.8021,5.8064,5.7975,5.7963,5.7923,5.7918,5.7912,5.7908,5.7814,5.7814,5.7813,5.7854,0,0,0,0,0,0,5.8293,5.8278,5.827,5.8213,5.8195,5.814,5.8119,5.8108,5.8084,5.8081,5.802,5.801,5.7974,5.793,5.7919,5.7912,5.7905,5.7814,5.7814,5.7813,5.7852,5.7855,5.7857,0,0,0,0,0,5.8298,5.8283,5.827,5.8258,5.8184,5.8139,5.8129,5.8091,5.8084,5.8074,5.8036,5.8012,5.7921,5.7926,5.7913,5.7905,5.7814,5.7814,5.7813,5.7851,5.7854,5.7857,0,0,0,0,0,0,5.8339,5.8275,5.8259,5.8227,5.8189,5.8131,5.8117,5.8095,5.8057,5.8055,5.8006,5.7993,5.7957,5.7927,5.7934,5.7876,5.7865,5.7862,5.7898,5.79,5.7902,5.791,5.7901,0,0,0,0,0,5.8345,5.8316,5.8261,5.8237,5.8219,5.8172,5.8151,5.8125,5.8083,5.8066,5.8025,5.7983,5.7945,5.7921,5.7882,5.7848,5.7833,5.7836,5.7838,5.784,5.7838,5.7817,5.7818,5.7813,5.7813,5.7813,0,0,5.8355,5.8317,5.8301,5.8244,5.8212,5.8182,5.8159,5.8127,5.8103,5.806,5.8021,5.7989,5.7939,5.7902,5.7883,5.7875,5.7837,5.784,5.7842,5.7839,5.7817,5.7818,5.7818,5.7812,5.7812,5.7812,0,0,5.8359,5.8328,5.8305,5.8274,5.8226,5.8195,5.8189,5.8135,5.8113,5.8073,5.804,5.801,5.7945,5.7911,5.7885,5.7876,5.7852,5.7865,5.7876,5.7856,5.7857,5.7857,5.7853,5.7853,5.7863,5.7863,5.7863,0,5.8377,5.8333,5.8295,5.8266,5.8241,5.8204,5.8179,5.8149,5.8091,5.8074,5.8067,5.7985,5.7948,5.7903,5.7901,5.7881,5.7872,5.7871,5.786,5.786,5.7859,5.7855,5.7854,5.7865,5.7865,5.7864,5.7864,0,5.8357,5.8327,5.8313,5.8261,5.8235,5.8208,5.8164,5.8141,5.8117,5.8086,5.8045,5.8,5.7952,5.7939,5.7914,5.7889,5.7886,5.787,5.7857,5.7862,5.7858,5.7856,5.7868,5.7867,5.7866,5.7866,0,0,5.8384,5.8312,5.8308,5.8284,5.8229,5.8203,5.8174,5.813,5.8111,5.8071,5.8045,5.7991,5.7977,5.7947,5.7918,5.7901,5.7896,5.7887,5.7885,5.789,5.7865,5.7878,5.7877,5.788,5.7879,5.7879,5.7869,0,5.838,5.8329,5.8294,5.8255,5.8226,5.819,5.8164,5.8126,5.8096,5.8064,5.8029,5.7993,5.7976,5.7958,5.794,5.7901,5.7891,5.7901,5.7852,5.7851,5.7867,5.7874,5.7887,5.788,5.7867,5.7867,5.7867,0,5.8369,5.8334,5.8293,5.8243,5.8229,5.8206,5.8163,5.8134,5.809,5.8069,5.8037,5.8007,5.7972,5.7963,5.7913,5.7921,5.7898,5.7876,5.7875,5.7869,5.7859,5.7868,5.7877,5.7876,5.7864,5.7864,5.7864,0,5.8393,5.8335,5.8303,5.8284,5.8223,5.8208,5.8182,5.8138,5.8114,5.8075,5.8058,5.8014,5.799,5.7956,5.7915,5.7912,5.7869,5.7856,5.7849,5.785,5.7841,5.7842,5.7847,5.7827,5.7827,5.7827,5.7827,0,5.8392,5.8368,5.8313,5.8294,5.8266,5.8225,5.8197,5.8167,5.8129,5.8101,5.8066,5.804,5.7987,5.7954,5.7921,5.7884,5.7873,5.7854,5.7845,5.7857,5.786,5.7842,5.7841,5.7827,5.7827,5.7827,5.7827,0,5.8414,5.8376,5.8339,5.8286,5.8272,5.8254,5.8207,5.8185,5.8153,5.8118,5.8108,5.8056,5.8016,5.7972,5.7915,5.7893,5.7858,5.7845,5.7874,5.7869,5.7865,5.7866,5.7857,5.7854,5.7837,5.7838,5.7838,0,5.8416,5.8398,5.8343,5.8324,5.8299,5.8268,5.8243,5.8201,5.8177,5.8126,5.811,5.8067,5.8031,5.7967,5.7923,5.7879,5.7866,5.7866,5.7859,5.7871,5.7865,5.7867,5.7865,5.7868,5.7868,5.7869,5.7869,0,5.8424,5.8407,5.8375,5.8336,5.8309,5.8276,5.8241,5.8226,5.8177,5.8151,5.8111,5.8083,5.8026,5.7984,5.7935,5.7904,5.7878,5.7872,5.7868,5.788,5.7897,5.7887,5.788,5.7872,5.7872,5.7871,5.7871,5.7871,5.8436,5.8418,5.8378,5.8343,5.8313,5.8281,5.8259,5.8225,5.8192,5.8145,5.8121,5.8081,5.8035,5.7968,5.7938,5.7904,5.7895,5.789,5.7888,5.7888,5.7891,5.7903,5.7894,5.7894,5.7894,5.7894,5.7894,0,5.8442,5.8415,5.8383,5.8337,5.831,5.829,5.825,5.8228,5.8194,5.8155,5.8121,5.8074,5.8033,5.7986,5.7941,5.7923,5.7909,5.7912,5.7913,5.7906,5.7901,5.7909,5.7924,5.7924,5.7924,5.7924,5.7924,5.7924,5.8442,5.8411,5.8389,5.8342,5.8313,5.8276,5.8255,5.8225,5.8194,5.8145,5.8111,5.8082,5.8039,5.7991,5.7952,5.7939,5.7923,5.793,5.7913,5.7909,5.7907,5.7904,5.7912,5.7927,5.7927,5.7922,5.7921,5.7921]}]]